Regional Weather Roundup
Issued by NWS

Home | Current Version | Previous Version | Text Only | Print | Product List | Glossary On
Versions: 1 2 3 4 5 6 7 8 9 10 11 12 13 14 15 16 17 18 19 20 21 22 23 24 25 26 27 28 29 30 31 32 33 34 35 36 37 38 39 40 41 42 43 44 45 46 47 48 49 50
000
ASUS44 KBMX 220410
RWRAL

ALABAMA REGIONAL WEATHER ROUNDUP
NATIONAL WEATHER SERVICE BIRMINGHAM AL
1000 PM CST SUN DEC 21 2014

NOTE: "FAIR" INDICATES FEW OR NO CLOUDS BELOW 12,000 FEET
WITH NO SIGNIFICANT WEATHER AND/OR OBSTRUCTIONS TO VISIBILITY.

THE REMARK "TC" DENOTES TEMPERATURE IN DEGREES CELSIUS.

ALZ001>011-014-016>018-020-220500-
NORTH ALABAMA

CITY           SKY/WX    TMP DP  RH WIND       PRES   REMARKS
MUSCLE SHOALS  PTCLDY    46  39  76 E7        30.03F
HUNTSVILLE     CLOUDY    50  45  81 SE8       30.05S
DECATUR        MOCLDY    48  44  86 E5        30.05F
HALEYVILLE     CLOUDY    46  43  90 CALM      30.04F
GADSDEN        CLOUDY    48  45  87 E8        30.07F
$$

ALZ012-013-022-023-030>036-040>044-220500-
WEST CENTRAL ALABAMA

CITY           SKY/WX    TMP DP  RH WIND       PRES   REMARKS
TUSCALOOSA     CLOUDY    52  47  83 E3        30.04S
$$

ALZ015-024>027-033>036-040>044-220500-
CENTRAL ALABAMA

CITY           SKY/WX    TMP DP  RH WIND       PRES   REMARKS
BIRMINGHAM     CLOUDY    51  46  83 E6        30.07S
MONTGOMERY     CLOUDY    53  49  86 E9        30.04F
SHELBY CO ARPT CLOUDY    50  49  96 E5        30.05F FOG
MAXWELL AFB    CLOUDY    53  50  91 E6        30.04F
GREENVILLE     CLOUDY    53  51  93 E5        30.02S FOG
$$

ALZ019-021-028-029-037-038-045>048-220500-
EAST CENTRAL ALABAMA

CITY           SKY/WX    TMP DP  RH WIND       PRES   REMARKS
ANNISTON       CLOUDY    50  45  83 E6        30.08S
ALEXANDER CITY CLOUDY    52  47  85 E3        30.06S FOG
AUBURN         CLOUDY    46  45  93 E7        30.08F
$$

ALZ051>064-220500-
SOUTHWEST ALABAMA

CITY           SKY/WX    TMP DP  RH WIND       PRES   REMARKS
MOBILE         CLOUDY    53  53 100 E5        30.00R FOG
BROOKLEY FIELD CLOUDY    58  55  90 E8        30.01F
EVERGREEN      CLOUDY    55  54  96 E6        30.01F FOG
$$

ALZ049-050-065>069-220500-
SOUTHEAST ALABAMA

CITY           SKY/WX    TMP DP  RH WIND       PRES   REMARKS
DOTHAN         CLOUDY    52  51  97 E9        30.05F FOG
OZARK          CLOUDY    52  51  95 NE8       30.02F FOG
TROY           CLOUDY    52  50  93 E6        30.04S FOG
EUFAULA        CLOUDY    51  50  96 E5        30.04F FOG
$$


USA.gov is the U.S. government's official web portal to all federal, state and local government web resources and services.